Theta_e
369 366 362 363 357 353 351 352 366 363 363 364 362 362 362 356 361 363 356 359 359 353
368 367 365 372 366 359 363 356 364 361 362 364 364 362 365 355 354 363 363 360 361 356
358 366 366 366 365 366 364 363 363 362 360 362 363 361 363 362 362 362 362 356 358 362
355 359 363 362 366 364 365 365 364 365 362 360 359 360 361 359 358 358 360 360 355 355
364 363 360 362 363 357 351 364 366 364 362 360 357 358 353 352 357 356 355 358 361 359
359 361 361 362 362 353 355 356 365 364 361 355 353 353 355 358 358 357 351 358 356 352
357 360 365 364 365 361 356 356 361 363 362 355 356 357 357 356 359 355 353 358 356 353
358 359 359 360 361 361 358 352 357 353 359 357 356 353 355 354 355 353 353 356 355 358
352 354 353 357 362 353 339 340 341 354 354 359 354 342 342 351 352 355 354 349 353 354
348 349 351 352 354 359 343 339 347 356 354 354 359 335 338 342 354 357 352 352 351 349
342 343 349 351 352 357 359 357 356 356 360 359 362 336 333 339 354 359 356 351 356 355
341 343 344 346 352 355 355 353 356 357 363 361 365 337 330 337 351 352 357 360 362 350
344 345 343 348 351 353 355 353 346 353 358 346 361 342 328 334 355 353 350 357 354 339
345 346 346 348 350 349 350 351 353 351 354 356 353 357 324 324 347 354 351 348 355 355
Wind_Speed
10 8 9 11 9 10 8 7 5 11 11 11 13 11 10 5 6 9 10 10 6 9
9 11 9 6 10 9 8 7 3 7 8 10 12 12 11 10 8 10 8 9 10 9
5 12 10 12 9 10 8 8 6 8 10 9 10 12 11 10 11 10 7 7 8 9
9 11 11 12 10 10 9 9 10 9 11 11 11 11 11 12 12 12 9 9 9 9
12 9 9 11 12 7 6 8 12 9 11 9 12 9 9 12 12 13 12 13 11 12
6 7 11 11 10 10 8 11 9 10 11 10 10 8 10 12 13 13 11 12 10 7
3 2 7 6 8 9 8 10 8 10 10 12 12 11 11 10 10 9 12 12 11 10
3 5 6 7 8 7 7 7 11 16 11 13 12 7 13 14 11 9 10 10 10 13
5 6 6 6 6 7 3 8 9 18 14 15 12 12 13 11 9 10 13 7 7 7
6 6 6 7 6 5 8 8 10 16 15 17 14 12 14 14 12 11 9 12 9 7
7 8 8 7 8 7 5 9 10 13 14 10 12 12 18 17 16 12 12 11 14 14
9 9 9 9 9 8 8 7 7 7 10 12 13 14 15 15 16 16 16 13 13 10
11 10 11 10 10 10 9 10 10 10 9 12 13 12 15 15 11 12 13 13 12 11
12 12 11 12 11 10 12 11 11 12 10 11 11 13 15 17 9 7 12 13 11 11
Wind_Direction
227 226 229 205 238 222 225 194 161 182 198 212 212 219 218 222 235 242 221 228 216 261
222 235 259 262 199 234 246 255 216 221 184 223 232 221 212 217 214 239 234 207 214 228
214 225 236 243 233 255 251 258 236 225 235 214 225 230 221 219 220 228 215 223 217 223
223 218 223 237 229 251 246 238 243 226 233 231 229 224 217 215 215 220 216 212 211 231
199 219 238 245 240 262 264 251 243 229 234 231 232 216 222 213 211 220 207 219 203 213
254 203 234 243 240 244 272 261 251 230 226 225 216 208 208 219 217 212 216 212 221 221
312 315 252 253 241 247 247 266 268 248 224 224 221 211 199 218 235 215 224 201 211 221
318 291 280 283 284 279 353 319 294 277 231 222 224 225 197 211 212 223 235 210 235 222
341 345 353 343 303 104 46 277 298 283 251 221 222 202 210 211 193 213 201 205 226 262
322 316 324 325 315 173 196 269 252 255 255 242 223 193 205 209 220 210 211 210 206 219
291 299 309 299 295 295 215 223 242 254 260 251 249 210 204 206 224 219 213 206 218 213
270 272 278 279 281 279 287 271 256 251 267 263 253 239 201 196 213 228 222 214 212 225
268 264 260 265 267 273 263 270 264 262 243 260 262 252 203 191 225 229 233 220 225 211
263 262 257 256 254 256 260 264 271 275 271 262 259 271 189 191 191 266 239 238 214 229